Weather History for Lakeville, MN

Change the Weather History Date:

Wednesday, May 13, 2009

  Actual Average Record
Temperature  
Mean Temperature 60 °F -  
Max Temperature 68 °F 69 °F 91 °F (2007)
Min Temperature 53 °F 44 °F 26 °F (1953)
Degree Days  
Heating Degree Days 4    
Growing Degree Days 10 (Base 50)    
Moisture  
Dew Point 55 °F    
Average Humidity 83    
Maximum Humidity 100    
Minimum Humidity 40    
Precipitation  
Precipitation 0.06 in - - ()
Sea Level Pressure  
Sea Level Pressure 29.57 in    
Wind  
Wind Speed 13 mph (SSW)    
Max Wind Speed 22 mph    
Max Gust Speed 33 mph    
Visibility 8 miles    
Events Rain    
Averages and records for this station are not official NWS values.
T = Trace of Precipitation, MM = Missing Value Source: NWS Daily Summary

Daily Weather History Graph

Daily Weather History Graph

Search for Another Location

Airport:

Trip Planner

Search our weather history database for the weather conditions in past years. The results will help you decide how hot, cold, wet, or windy it might be!

Date:

Astronomy

May. 13, 2009 Rise Set
Actual Time 5:46 AM CDT 8:32 PM CDT
Civil Twilight 5:13 AM CDT 9:06 PM CDT
Nautical Twilight 4:30 AM CDT 9:48 PM CDT
Astronomical Twilight 3:41 AM CDT 10:38 PM CDT
Moon 12:15 AM CDT (5/13) 8:52 AM CDT (5/13)
Length of Visible Light 15h 52m
Length of Day
14h 45m
Waning Gibbous, 82% of the Moon is Illuminated
May 13
Waning Gibbous
May 17
Last Quarter
May 24
New
May 30
First Quarter
Jun 7
Full

Hourly Weather History & Observations

Time (CDT) Temp. Dew Point Humidity Pressure Visibility Wind Dir Wind Speed Gust Speed Precip Events Conditions
12:13 AM 57.2 °F 51.8 °F 82% 29.65 in 10.0 mi SSE 19.6 mph 31.1 mph N/A   Overcast
12:33 AM 57.2 °F 51.8 °F 82% 29.65 in 10.0 mi SSE 15.0 mph 26.5 mph N/A   Overcast
12:53 AM 57.2 °F 51.8 °F 82% 29.66 in 10.0 mi South 17.3 mph 33.4 mph N/A   Overcast
1:13 AM 55.4 °F 51.8 °F 88% 29.65 in 10.0 mi South 21.9 mph 31.1 mph N/A   Overcast
1:33 AM 55.4 °F 51.8 °F 88% 29.65 in 7.0 mi South 17.3 mph 28.8 mph N/A   Overcast
1:53 AM 55.4 °F 53.6 °F 94% 29.65 in 4.0 mi SSE 15.0 mph 25.3 mph N/A   Overcast
2:13 AM 53.6 °F 53.6 °F 100% 29.65 in 4.0 mi South 16.1 mph 23.0 mph N/A   Overcast
2:33 AM 53.6 °F 53.6 °F 100% 29.64 in 2.5 mi SSE 15.0 mph 24.2 mph N/A Rain Rain
2:53 AM 53.6 °F 53.6 °F 100% 29.64 in 3.0 mi South 16.1 mph 19.6 mph 0.01 in Rain Rain
3:13 AM 53.6 °F 53.6 °F 100% 29.62 in 2.5 mi SSE 13.8 mph 20.7 mph N/A Rain Light Rain
3:33 AM 53.6 °F 53.6 °F 100% 29.61 in 4.0 mi SSE 15.0 mph - N/A   Light Drizzle
3:53 AM 53.6 °F 53.6 °F 100% 29.61 in 10.0 mi SSE 12.7 mph 18.4 mph N/A   Overcast
4:13 AM 55.4 °F 53.6 °F 94% 29.61 in 10.0 mi South 11.5 mph 23.0 mph N/A   Overcast
4:33 AM 55.4 °F 53.6 °F 94% 29.61 in 7.0 mi South 15.0 mph 21.9 mph N/A   Overcast
4:53 AM 53.6 °F 53.6 °F 100% 29.60 in 3.0 mi South 15.0 mph 20.7 mph N/A   Light Drizzle
5:13 AM 53.6 °F 53.6 °F 100% 29.59 in 5.0 mi South 13.8 mph 20.7 mph N/A   Overcast
5:33 AM 53.6 °F 53.6 °F 100% 29.58 in 4.0 mi South 12.7 mph 23.0 mph N/A   Overcast
5:53 AM 53.6 °F 53.6 °F 100% 29.59 in 5.0 mi South 16.1 mph 21.9 mph N/A   Overcast
6:33 AM 55.4 °F 53.6 °F 94% 29.58 in 10.0 mi South 11.5 mph 17.3 mph N/A   Overcast
6:53 AM 55.4 °F 53.6 °F 94% 29.55 in 10.0 mi SSE 16.1 mph 24.2 mph 0.01 in Rain Light Rain
7:13 AM 55.4 °F 55.4 °F 100% 29.55 in 10.0 mi South 15.0 mph 19.6 mph N/A   Overcast
7:33 AM 55.4 °F 55.4 °F 100% 29.58 in 10.0 mi SSW 5.8 mph - N/A   Overcast
7:53 AM 57.2 °F 55.4 °F 94% 29.59 in 7.0 mi SSW 8.1 mph - N/A   Overcast
8:13 AM 57.2 °F 55.4 °F 94% 29.57 in 7.0 mi South 10.4 mph - N/A   Overcast
8:33 AM 57.2 °F 55.4 °F 94% 29.56 in 7.0 mi South 8.1 mph - N/A   Overcast
8:53 AM 57.2 °F 57.2 °F 100% 29.57 in 7.0 mi South 6.9 mph - N/A   Overcast
9:13 AM 59.0 °F 57.2 °F 94% 29.56 in 10.0 mi South 8.1 mph - N/A   Overcast
9:33 AM 59.0 °F 57.2 °F 94% 29.56 in 10.0 mi South 9.2 mph - N/A   Overcast
9:53 AM 60.8 °F 57.2 °F 88% 29.55 in 10.0 mi South 10.4 mph - N/A   Overcast
10:13 AM 60.8 °F 59.0 °F 94% 29.56 in 10.0 mi South 10.4 mph - N/A   Overcast
10:33 AM 62.6 °F 59.0 °F 88% 29.54 in 10.0 mi SSW 8.1 mph - N/A   Overcast
10:53 AM 62.6 °F 59.0 °F 88% 29.55 in 10.0 mi South 6.9 mph - N/A   Overcast
11:13 AM 64.4 °F 60.8 °F 88% 29.55 in 10.0 mi SW 5.8 mph - N/A   Overcast
11:33 AM 64.4 °F 59.0 °F 83% 29.55 in 10.0 mi SW 5.8 mph - N/A   Overcast
11:53 AM 66.2 °F 60.8 °F 83% 29.55 in 10.0 mi SSW 4.6 mph - N/A   Mostly Cloudy
12:13 PM 66.2 °F 60.8 °F 83% 29.55 in 10.0 mi SW 8.1 mph - N/A   Mostly Cloudy
12:33 PM 66.2 °F 60.8 °F 83% 29.54 in 10.0 mi South 5.8 mph - N/A   Mostly Cloudy
12:53 PM 66.2 °F 60.8 °F 83% 29.54 in 10.0 mi South 9.2 mph - N/A   Mostly Cloudy
1:13 PM 68.0 °F 60.8 °F 78% 29.55 in 10.0 mi SSW 9.2 mph - N/A   Mostly Cloudy
1:33 PM 66.2 °F 60.8 °F 83% 29.56 in 7.0 mi WSW 5.8 mph - N/A Rain Light Rain
1:53 PM 64.4 °F 59.0 °F 83% 29.58 in 4.0 mi West 10.4 mph 20.7 mph 0.01 in Rain Rain
2:13 PM 62.6 °F 60.8 °F 94% 29.56 in 10.0 mi WNW 4.6 mph - 0.03 in Rain Light Rain
2:33 PM 64.4 °F 57.2 °F 77% 29.56 in 10.0 mi WNW 9.2 mph - 0.03 in   Mostly Cloudy
2:53 PM 64.4 °F 57.2 °F 77% 29.55 in 10.0 mi WNW 4.6 mph - 0.03 in   Mostly Cloudy
3:13 PM 66.2 °F 53.6 °F 64% 29.55 in 10.0 mi West 8.1 mph - N/A   Scattered Clouds
3:33 PM 66.2 °F 51.8 °F 60% 29.56 in 10.0 mi WSW 6.9 mph - N/A   Mostly Cloudy
3:53 PM 66.2 °F 51.8 °F 60% 29.55 in 10.0 mi West 5.8 mph - N/A   Mostly Cloudy
4:13 PM 66.2 °F 51.8 °F 60% 29.54 in 10.0 mi West 4.6 mph - N/A   Scattered Clouds
4:33 PM 66.2 °F 51.8 °F 60% 29.54 in 10.0 mi West 8.1 mph - N/A   Scattered Clouds
4:53 PM 66.2 °F 51.8 °F 60% 29.53 in 10.0 mi WSW 6.9 mph - N/A   Scattered Clouds
5:13 PM 66.2 °F 51.8 °F 60% 29.53 in 10.0 mi West 6.9 mph - N/A   Clear
5:33 PM 66.2 °F 51.8 °F 60% 29.53 in 10.0 mi WSW 3.5 mph - N/A   Clear
5:53 PM 66.2 °F 51.8 °F 60% 29.52 in 10.0 mi WSW 4.6 mph - N/A   Clear
6:13 PM 66.2 °F 48.2 °F 52% 29.51 in 10.0 mi West 5.8 mph - N/A   Clear
6:33 PM 64.4 °F 44.6 °F 49% 29.51 in 10.0 mi West 11.5 mph 16.1 mph N/A   Clear
6:53 PM 64.4 °F 42.8 °F 45% 29.54 in 10.0 mi West 12.7 mph 23.0 mph N/A   Scattered Clouds
7:13 PM 66.2 °F 41.0 °F 40% 29.54 in 10.0 mi West 11.5 mph 23.0 mph N/A   Clear
7:33 PM 64.4 °F 37.4 °F 37% 29.56 in 10.0 mi WNW 15.0 mph 27.6 mph N/A   Scattered Clouds
7:53 PM 60.8 °F 35.6 °F 39% 29.57 in 10.0 mi WNW 16.1 mph 28.8 mph N/A   Scattered Clouds
8:13 PM 60.8 °F 35.6 °F 39% 29.59 in 10.0 mi West 12.7 mph 19.6 mph N/A   Mostly Cloudy
8:32 PM 59.0 °F 33.8 °F 39% 29.58 in 10.0 mi West 11.5 mph 20.7 mph N/A   Mostly Cloudy
8:53 PM 57.2 °F 32.0 °F 38% 29.58 in 10.0 mi West 9.2 mph 21.9 mph N/A   Scattered Clouds
9:13 PM 55.4 °F 30.2 °F 38% 29.59 in 10.0 mi West 10.4 mph 19.6 mph N/A   Clear
9:33 PM 55.4 °F 30.2 °F 38% 29.60 in 10.0 mi West 9.2 mph - N/A   Clear
9:53 PM 53.6 °F 32.0 °F 44% 29.62 in 10.0 mi West 8.1 mph - N/A   Clear
10:13 PM 53.6 °F 33.8 °F 47% 29.63 in 10.0 mi West 9.2 mph - N/A   Clear
10:33 PM 51.8 °F 33.8 °F 50% 29.63 in 10.0 mi West 5.8 mph - N/A   Clear
10:53 PM 51.8 °F 33.8 °F 50% 29.64 in 10.0 mi WSW 5.8 mph - N/A   Clear
11:13 PM 51.8 °F 33.8 °F 50% 29.65 in 10.0 mi WSW 9.2 mph - N/A   Clear
11:33 PM 51.8 °F 33.8 °F 50% 29.66 in 10.0 mi WSW 9.2 mph - N/A   Clear
11:53 PM 51.8 °F 33.8 °F 50% 29.66 in 10.0 mi WSW 8.1 mph 18.4 mph N/A   Clear